EHI
0 0 0 0 0 0 0 0 0 0 0 0 1 2 1 1 1 5 7 4 4 8 10 13 17 19 22 27 28 25 22 21 18 15 11 7 3 1 0 0 0 0 0 0 0 0 0 0 0
0 0 0 0 0 0 0 0 0 0 0 0 2 2 2 3 4 6 7 5 4 7 11 15 19 20 21 24 26 25 22 19 16 14 10 6 2 1 0 0 0 0 0 0 0 0 0 0 0
0 0 0 0 0 0 0 0 0 0 0 0 1 2 4 6 7 8 8 6 4 5 10 19 22 19 17 19 21 22 20 17 15 13 9 4 1 0 0 0 0 0 0 0 0 0 0 0 0
0 0 0 0 0 0 0 0 0 1 0 0 1 2 7 11 11 11 10 7 5 4 10 19 21 16 13 14 16 18 18 16 13 11 7 4 1 0 0 0 0 0 0 0 0 0 0 0 0
0 0 0 0 0 0 0 0 0 0 0 0 1 5 12 18 17 16 13 8 4 3 8 16 18 15 12 12 14 14 14 14 11 7 5 4 2 1 0 0 0 0 0 0 0 1 1 0 0
0 0 0 0 0 0 0 0 0 0 0 0 1 8 22 28 24 20 15 8 3 3 7 13 14 12 11 12 13 12 11 11 9 5 4 4 3 1 0 0 0 0 0 0 1 2 1 0 0
0 0 0 0 0 0 0 0 0 0 1 1 1 10 28 39 35 26 18 10 4 3 7 10 10 9 9 12 13 12 9 8 6 5 5 6 4 2 1 0 0 0 0 0 1 1 1 0 0
0 0 0 0 0 0 0 0 0 1 3 3 4 12 31 48 48 38 28 17 9 8 9 10 8 6 6 9 11 10 7 4 2 3 5 5 5 3 2 1 0 0 0 0 0 0 0 0 0
0 0 0 0 0 0 0 0 0 1 3 6 11 21 40 58 60 51 40 27 20 17 15 12 9 6 4 5 8 7 4 1 1 2 3 3 3 3 3 3 1 0 0 0 0 0 0 0 0
0 0 0 0 0 0 0 0 0 0 2 6 15 32 52 66 67 58 46 36 30 27 22 16 11 6 4 5 8 8 5 4 3 3 2 1 1 2 3 4 3 1 1 1 1 1 1 0 0
0 0 0 0 0 0 0 0 0 0 2 5 16 35 54 65 66 57 46 36 31 29 26 21 15 9 7 8 11 11 10 8 5 4 3 2 2 3 3 3 3 3 3 3 4 4 3 1 1
0 0 0 0 0 0 0 0 1 2 5 11 19 30 45 55 58 52 41 32 27 25 25 23 20 16 13 12 13 13 12 10 7 5 4 4 4 4 3 4 4 4 5 6 6 6 5 3 2
0 0 0 0 0 0 0 0 1 4 10 18 24 30 38 45 47 45 37 29 25 23 22 23 24 21 17 17 16 13 12 10 9 8 6 5 5 6 5 4 5 6 6 6 6 5 4 2 2
0 0 0 0 0 0 0 0 1 4 10 18 25 31 37 41 42 41 36 32 27 24 22 22 22 21 19 19 17 12 9 9 8 8 7 5 5 6 5 4 4 5 5 5 4 3 1 0 1
0 0 0 0 0 0 0 0 2 5 9 14 20 26 33 36 38 38 36 32 27 24 23 20 17 17 19 18 14 9 6 6 5 5 5 4 3 4 4 3 2 2 3 3 2 2 1 0 0
0 0 0 0 0 0 0 2 4 6 8 11 15 19 25 29 28 28 28 26 23 23 23 20 14 14 15 15 12 7 5 5 3 1 1 1 2 3 2 1 1 2 2 2 2 2 1 0 0
0 0 0 0 0 0 0 2 5 5 7 9 12 15 19 20 17 16 19 20 20 22 23 20 15 12 12 12 10 9 6 3 1 1 1 1 2 3 2 1 2 3 3 3 3 3 3 1 1
0 0 0 0 0 0 0 1 2 3 4 7 9 10 11 12 13 14 16 18 18 19 19 18 15 12 10 9 9 9 6 3 1 1 2 1 1 1 2 2 2 3 3 3 3 3 3 2 1
0 0 0 0 0 0 0 0 0 1 3 6 8 7 7 10 14 15 16 17 16 14 15 17 15 10 7 7 7 7 6 3 1 1 1 1 0 0 1 2 3 2 2 2 2 3 3 2 1
0 0 0 0 0 0 0 0 0 1 4 6 8 8 8 11 13 13 14 15 13 12 13 15 13 7 4 5 6 6 5 3 1 0 0 0 0 1 1 2 3 1 0 0 1 1 2 2 1
0 0 0 0 0 0 0 0 0 1 4 6 7 8 9 10 10 10 12 13 13 12 12 12 10 6 3 4 6 6 5 3 1 0 0 0 0 1 2 3 2 1 0 0 0 0 1 1 0
0 0 0 0 0 0 0 0 0 1 3 5 6 6 8 8 8 9 10 11 13 12 11 10 8 6 4 4 5 5 4 2 1 0 0 0 0 1 1 2 2 1 0 0 0 0 0 0 0
0 0 0 0 0 0 0 0 0 0 2 3 4 5 6 8 9 9 10 10 11 12 11 9 8 6 4 3 3 2 1 1 1 0 0 0 0 0 0 1 2 1 0 0 0 0 0 0 0
0 0 0 0 0 0 0 0 0 0 0 1 3 4 6 8 9 9 9 10 10 11 10 9 7 5 3 2 2 1 1 2 1 0 0 0 0 0 0 1 1 0 0 0 0 0 0 0 0
0 0 0 0 0 0 0 0 0 0 0 1 3 5 6 7 8 8 8 9 9 8 10 9 6 3 2 0 0 0 1 1 1 0 0 0 0 0 0 0 0 0 0 0 0 0 0 0 0
0 0 0 0 0 0 0 0 0 0 0 1 4 5 5 6 6 6 6 7 6 7 10 10 7 4 1 0 0 0 0 0 0 0 0 0 0 0 0 0 0 0 0 0 0 0 0 0 1
0 0 0 0 0 0 0 0 0 0 0 2 5 5 4 3 4 4 4 4 5 8 9 9 7 5 1 0 0 0 0 0 0 0 0 0 0 0 0 0 0 0 0 0 1 1 1 1 1
0 0 0 0 0 0 0 0 0 0 1 3 6 6 4 3 3 3 3 4 6 9 8 7 6 4 1 0 0 0 0 0 0 0 0 0 0 0 0 0 0 0 0 0 0 0 0 0 1
0 0 0 0 0 0 0 0 0 1 1 3 6 7 5 4 4 3 3 4 6 7 6 5 4 2 1 1 1 1 1 1 0 0 0 1 1 1 1 0 0 0 0 0 0 0 0 0 0
0 0 0 0 0 0 0 0 0 1 1 2 5 6 6 5 4 3 3 4 4 5 4 3 2 1 1 2 2 2 2 2 1 0 1 2 2 2 1 0 0 0 0 0 0 0 0 0 0
Wind_Speed
10 8 6 5 8 6 1 3 1 2 2 3 3 1 1 2 3 5 7 13 15 17 17 17 14 14 14 14 13 13 13 13 13 12 11 11 10 9 9 8 8 8 9 9 9 9 9 10 10
7 5 6 7 7 4 2 2 1 1 4 5 4 3 2 3 5 7 10 14 16 17 17 16 16 14 14 14 13 13 13 13 12 11 11 10 9 9 8 8 7 8 8 8 8 8 9 9 9
6 7 7 6 5 4 1 2 1 3 5 5 4 2 1 4 6 7 11 17 17 16 15 17 17 15 14 14 13 13 12 12 11 11 10 9 9 8 8 7 7 7 7 7 8 8 8 9 8
6 7 7 8 5 1 2 1 1 4 5 5 4 4 5 5 4 8 16 18 17 16 16 18 16 15 14 14 13 12 12 11 11 10 9 9 9 8 7 6 6 6 6 7 7 7 7 8 7
7 6 9 8 5 1 1 1 2 4 5 5 5 5 6 5 7 14 17 17 17 16 15 18 16 15 14 14 13 12 12 11 10 10 9 8 8 8 7 6 5 5 6 6 7 7 7 7 6
6 6 9 7 3 2 0 1 3 4 4 5 5 6 7 7 11 15 16 15 15 15 15 16 16 14 14 13 13 12 11 11 10 9 9 8 7 7 6 6 6 6 6 6 6 6 6 6 5
8 7 8 6 4 4 1 1 2 3 4 4 4 5 8 9 11 13 14 14 14 14 14 14 15 14 14 13 12 11 11 10 9 9 8 7 6 6 6 5 5 5 6 6 6 6 5 5 4
6 7 7 6 5 2 2 1 1 3 2 2 3 5 8 12 12 13 13 13 13 12 12 12 12 12 12 12 12 11 10 9 8 8 7 7 6 6 5 6 5 4 5 5 5 5 5 5 4
6 8 5 3 3 1 2 2 1 1 2 3 1 1 8 16 14 14 13 13 12 11 10 11 11 10 10 10 11 11 10 9 8 8 7 6 5 5 5 3 4 4 4 4 5 5 5 5 5
7 7 2 2 4 4 2 4 2 4 5 5 5 6 12 16 15 15 14 14 14 13 11 9 10 10 9 7 8 6 7 7 6 5 6 4 2 2 2 6 4 3 4 5 5 5 6 7 6
6 5 3 3 4 6 5 3 2 6 5 4 6 10 13 15 14 14 13 12 12 11 11 10 9 8 7 5 6 4 3 4 4 4 4 2 2 2 2 2 4 4 5 4 5 6 5 4 2
6 5 5 5 4 6 5 3 2 3 3 3 2 9 13 14 14 13 12 11 11 11 10 9 9 7 6 4 4 4 3 3 3 4 3 3 2 2 1 1 1 2 2 2 2 2 2 2 3
9 5 3 4 5 4 4 2 1 1 2 2 4 8 12 12 11 11 11 9 9 9 8 8 7 7 6 4 3 4 3 3 3 2 2 2 2 1 1 1 0 1 1 2 2 2 2 2 3
4 5 4 4 3 3 4 2 3 2 2 4 5 7 10 10 11 11 10 10 9 9 8 7 8 7 6 5 4 3 3 3 3 2 2 1 1 1 1 1 0 0 1 1 1 1 2 2 2
5 7 6 4 3 3 5 5 3 3 3 4 5 7 8 9 9 10 10 10 9 9 8 8 7 7 7 6 5 4 3 3 3 3 3 2 2 1 1 1 0 1 1 0 1 1 2 2 3
8 9 6 5 3 4 8 4 6 5 5 5 5 6 7 8 9 9 8 8 9 9 8 7 6 7 7 6 5 4 3 4 3 3 3 3 2 1 0 1 1 1 1 0 1 1 2 1 2
9 6 4 3 4 3 7 2 5 5 5 6 6 6 7 8 9 9 9 9 9 10 10 8 7 8 7 7 6 5 4 3 3 3 2 3 3 2 1 1 2 1 0 1 2 1 2 2 2
4 6 5 3 3 5 6 3 5 6 6 6 7 7 7 8 9 9 9 9 9 9 10 10 8 8 8 7 5 4 4 3 3 3 3 3 3 2 1 2 1 1 1 1 2 1 1 2 2
8 8 7 3 1 5 6 5 5 6 7 7 7 8 8 8 9 9 10 10 10 9 10 10 9 8 6 5 5 5 5 4 4 4 4 3 3 3 1 1 2 1 2 2 2 2 1 2 2
8 8 6 1 2 5 4 5 5 7 7 6 7 8 9 10 10 10 10 10 10 10 10 10 10 8 7 5 3 3 4 3 3 3 4 3 3 2 2 1 0 1 1 1 2 3 4 2 2
8 8 6 3 4 5 6 7 7 7 7 7 8 8 9 11 11 11 11 10 10 10 10 8 8 8 7 6 5 5 4 4 4 4 4 3 2 2 0 1 0 1 2 1 2 2 3 4 2
7 3 5 5 7 4 6 6 6 8 9 10 10 10 11 11 12 12 12 12 11 10 9 9 8 7 7 6 5 5 4 4 4 3 3 3 2 2 2 1 1 1 1 1 2 2 3 4 3
2 1 4 6 8 6 6 8 3 8 10 12 12 12 12 13 13 13 12 11 11 10 9 9 8 7 6 5 5 5 4 4 4 4 5 3 3 3 2 2 1 0 1 2 2 2 3 3 4
5 5 5 7 8 7 2 6 2 6 9 11 14 13 13 14 13 13 13 11 10 10 10 10 9 8 7 6 6 5 5 5 5 4 5 4 3 3 3 2 1 1 1 1 1 2 2 3 3
8 7 6 5 5 1 3 5 2 3 6 9 13 15 15 15 14 14 14 13 12 12 12 11 10 9 8 7 6 6 6 6 6 5 5 3 3 3 3 2 1 0 0 0 1 1 2 2 3
9 9 7 6 5 3 4 4 2 4 6 8 11 13 15 16 15 15 15 14 14 14 13 12 11 10 9 8 7 6 6 5 4 4 3 3 2 2 3 2 1 1 1 1 1 2 1 1 3
6 7 5 8 7 7 2 2 5 6 8 10 13 15 16 16 16 16 15 15 14 14 14 13 12 11 10 9 8 7 6 4 4 4 4 3 2 2 3 2 2 1 1 2 3 2 2 2 3
7 4 5 6 6 6 3 3 2 10 12 13 15 16 17 17 17 16 15 15 14 13 13 13 13 12 11 10 8 7 7 6 5 4 3 2 3 2 3 2 2 2 2 2 3 4 2 3 3
8 8 8 6 6 8 5 1 4 7 12 14 16 16 17 17 17 16 15 14 14 14 14 13 13 12 11 10 9 8 7 7 6 5 5 5 4 4 3 3 3 3 3 3 3 4 3 4 4
8 8 8 8 6 6 7 1 6 6 10 13 15 16 17 17 16 16 16 15 14 14 14 14 13 12 12 11 10 9 8 8 7 7 6 5 5 5 4 4 3 3 3 3 4 5 4 5 5
Wind_Direction
203 212 232 243 240 234 58 80 56 130 119 101 119 144 100 53 4 64 109 150 148 145 141 149 148 145 143 140 139 137 138 138 138 137 135 133 131 127 122 117 113 108 105 103 101 99 100 102 103
202 209 232 241 259 252 113 74 88 81 104 128 139 149 132 95 67 104 135 147 150 146 147 150 147 148 145 143 141 140 139 139 138 138 137 135 131 126 121 117 113 110 108 106 104 102 101 102 103
200 229 255 249 258 289 25 79 51 115 146 169 160 153 62 85 112 128 138 149 151 147 146 140 151 150 147 145 144 143 142 141 139 138 138 137 132 126 122 120 116 114 113 111 108 107 105 105 103
212 223 236 249 243 300 331 18 143 156 164 190 182 139 100 59 118 132 143 150 150 150 149 140 153 152 150 148 147 146 144 144 143 142 141 138 135 134 132 127 122 119 115 113 114 111 110 110 108
239 249 241 238 237 181 305 324 224 203 180 182 190 146 109 87 119 135 145 151 154 153 148 144 154 154 152 151 150 148 147 147 148 148 147 146 145 144 142 138 134 127 121 118 117 116 114 113 111
232 244 250 247 212 192 217 285 238 222 184 173 188 159 106 118 134 144 148 155 156 153 148 142 152 155 154 154 153 153 152 151 151 152 153 155 154 152 150 148 145 143 136 130 126 124 123 119 115
259 256 264 270 252 212 148 290 255 227 209 184 189 163 126 136 139 145 147 156 155 154 148 150 156 158 157 156 158 157 155 155 157 159 161 160 158 159 158 152 151 151 148 146 143 142 140 135 128
273 263 248 245 253 223 125 213 287 256 190 128 202 192 150 146 146 147 149 154 154 154 152 152 155 159 162 160 160 159 157 159 160 164 165 161 163 164 162 178 162 163 161 161 162 159 155 149 148
249 250 246 248 263 209 138 244 202 255 165 164 190 4 117 139 147 149 152 155 158 158 156 157 154 160 166 164 153 161 160 161 167 169 164 180 187 171 177 156 146 178 180 179 182 174 167 172 172
237 251 282 339 305 308 293 272 255 211 194 180 161 119 129 147 155 156 161 163 162 161 160 162 157 162 168 164 150 167 169 161 180 162 167 184 165 181 191 126 160 184 193 196 194 188 190 217 193
237 268 316 295 293 296 283 273 250 245 224 206 185 156 154 158 160 161 164 165 160 161 162 158 157 164 166 159 158 163 157 155 172 161 166 173 179 188 205 176 174 192 203 211 187 202 210 218 225
242 261 284 295 305 284 281 272 248 274 348 12 187 167 163 167 166 166 162 164 161 166 164 156 157 161 165 160 153 159 154 159 164 154 181 177 196 207 209 219 203 208 214 214 226 216 201 228 239
236 263 276 284 277 279 268 260 285 31 33 91 153 169 172 169 167 162 155 157 157 161 157 152 155 155 155 149 169 151 152 157 143 144 170 195 191 201 180 166 213 243 234 214 215 221 205 217 225
257 263 265 262 257 229 228 198 201 116 102 120 140 156 163 166 163 154 155 160 167 165 158 154 157 152 151 151 152 141 143 135 130 128 133 183 162 132 133 173 201 346 299 338 292 246 215 220 228
251 251 233 207 215 200 227 210 179 138 147 142 148 151 155 163 161 162 165 165 167 165 159 160 158 154 155 153 150 145 140 136 131 126 132 144 135 123 170 139 139 36 356 296 260 264 242 229 227
231 238 234 157 206 188 243 240 128 152 162 163 159 158 163 164 166 162 160 157 160 161 158 163 162 154 152 147 148 138 132 130 134 141 133 126 117 131 179 92 73 35 325 293 222 260 252 245 256
215 250 278 161 188 212 242 257 130 166 180 181 174 170 174 168 166 164 164 162 159 156 154 156 156 153 148 148 143 134 133 131 138 139 130 122 124 122 117 61 51 294 329 327 307 21 307 292 291
305 300 290 271 154 225 244 231 160 179 192 196 188 184 181 172 165 162 161 155 150 150 151 151 149 144 149 148 142 139 131 142 141 128 116 130 130 121 99 111 71 324 10 7 8 342 343 309 305
298 291 292 311 130 238 246 232 188 182 193 194 189 179 174 167 155 153 157 154 152 152 154 152 151 150 157 157 162 156 149 151 140 131 122 133 125 121 114 94 108 354 44 6 344 312 296 310 319
266 271 278 182 168 239 236 231 201 195 200 201 186 172 166 158 153 155 156 159 159 157 155 153 158 159 169 156 150 139 135 145 126 124 127 140 138 155 164 97 164 64 51 42 360 329 314 325 332
260 272 283 269 189 220 239 219 204 192 198 194 187 177 167 165 165 165 163 165 165 161 161 156 156 161 163 155 153 143 147 162 155 152 149 141 154 162 100 161 332 11 304 42 348 330 325 316 313
270 292 269 244 235 226 238 270 189 185 190 192 186 181 174 171 170 170 167 166 165 160 155 152 156 158 157 168 170 170 175 170 143 157 130 136 140 149 153 165 145 303 334 14 305 31 319 309 304
310 219 245 246 256 260 221 267 164 173 198 193 187 184 178 176 174 171 168 166 163 158 156 155 153 152 157 167 164 178 175 153 147 147 129 141 124 134 141 143 137 153 327 17 356 357 324 312 315
154 183 208 228 245 254 233 264 213 180 203 190 183 181 177 175 172 169 166 165 165 163 163 159 158 156 158 165 163 173 157 155 152 159 151 168 147 143 127 132 129 178 28 35 334 323 310 328 328
207 236 245 230 233 285 118 257 305 151 179 185 180 178 175 172 171 169 168 170 170 170 169 166 164 160 160 161 162 160 158 162 166 175 163 185 164 152 133 137 153 142 81 320 313 284 326 313 308
221 255 279 297 308 331 177 253 86 141 164 173 176 176 173 174 174 174 174 174 175 173 173 172 170 165 164 163 158 156 165 177 162 166 169 173 175 125 128 167 182 204 241 263 272 272 275 299 294
215 240 291 279 280 279 237 184 161 164 173 175 175 176 178 177 177 177 177 177 177 176 177 177 173 168 167 164 158 162 170 165 146 154 187 169 157 159 166 194 207 216 235 267 263 280 289 289 280
265 244 223 257 284 282 256 236 174 175 184 179 179 180 179 179 179 178 178 178 179 178 178 178 175 171 169 169 174 168 170 168 168 184 166 163 175 178 192 209 217 227 239 244 261 260 250 274 275
195 216 244 261 281 292 301 24 75 175 182 181 181 181 180 181 180 178 177 178 178 178 176 177 176 174 174 176 177 173 177 175 180 184 182 184 191 192 204 210 222 238 247 249 254 272 270 269 279
239 244 234 251 254 259 284 26 105 163 176 180 180 179 180 181 180 179 177 177 179 180 180 179 179 179 179 178 178 181 182 184 190 188 189 193 197 203 205 214 227 239 242 248 256 264 269 271 275